Location: *
(37.4917°N, 71.5558°E)
Time: 03:49:58
(UTC+00:00)

Cosmos 1437 - Pass Details

Date: 09 April 2020
Orbit: 373 x 376 km, 81.2° (Epoch: 31 May)

Event Time Altitude Azimuth Distance (km) Brightness Sun altitude
Rises 14:27:34 0° 352° (N) 2,251 6.8 -9.2°
Reaches altitude 10° 14:29:34 10° 353° (N) 1,393 5.7 -9.6°
Maximum altitude 14:32:35 84° 79° (E) 383 2.4 -10.2°
Drops below altitude 10° 14:35:34 10° 170° (S) 1,376 5.1 -10.7°
Enters shadow 14:37:20 - 171° (S) 2,136 6.1 -11.1°
